Location: Wells
(51.2093°N, 2.6446°W)
Time: 01:33:10
(UTC+01:00)

STARS - Pass Details

Date: 22 March 2026
Orbit: 575 x 588 km, 98.1° (Epoch: 13 April)

Event Time Altitude Azimuth Distance (km) Brightness Sun altitude
Rises 02:53:15 0° 10° (N) 2,801 ? -28.6°
Reaches altitude 10° 02:55:27 10° 5° (N) 1,898 ? -28.4°
Enters shadow 02:57:30 27° 351° (N) 1,130 ? -28.2°
